| time (UTC) | temp C | wind direction | speed KPH | gust KPH | rain 1hr cm | rain 24hr cm | rain mn cm | humidity % | barometer mb |
| 20260510034000 | 12 | 227 | 1.6 | 4.8 | 0.00 | 0.00 | 0.00 | 79 | 1013.9 |
| 20260510033456 | 12 | 254 | 3.2 | 4.8 | 0.00 | 0.00 | 0.00 | 79 | 1014.0 |
| 20260510032954 | 12 | 236 | 1.6 | 4.8 | 0.00 | 0.00 | 0.00 | 79 | 1013.9 |
| 20260510032451 | 12 | 240 | 0.0 | 3.2 | 0.00 | 0.00 | 0.00 | 79 | 1013.9 |
| 20260510031950 | 12 | 213 | 0.0 | 1.6 | 0.00 | 0.00 | 0.00 | 80 | 1013.8 |
| 20260510031446 | 12 | 223 | 0.0 | 0.0 | 0.00 | 0.00 | 0.00 | 79 | 1013.9 |
| 20260510030942 | 13 | 240 | 0.0 | 0.0 | 0.00 | 0.00 | 0.00 | 78 | 1013.8 |
| 20260510030437 | 13 | 235 | 0.0 | 3.2 | 0.00 | 0.00 | 0.00 | 77 | 1013.9 |
| 20260510025935 | 13 | 226 | 3.2 | 4.8 | 0.00 | 0.00 | 0.00 | 77 | 1014.0 |
| 20260510025432 | 13 | 246 | 0.0 | 6.4 | 0.00 | 0.00 | 0.00 | 78 | 1013.7 |
| 20260510024930 | 12 | 240 | 4.8 | 4.8 | 0.00 | 0.00 | 0.00 | 79 | 1013.5 |
| 20260510024426 | 13 | 248 | 1.6 | 4.8 | 0.00 | 0.00 | 0.00 | 78 | 1013.7 |
| 20260510023922 | 13 | 223 | 3.2 | 4.8 | 0.00 | 0.00 | 0.00 | 77 | 1013.7 |
| 20260510023419 | 13 | 216 | 0.0 | 1.6 | 0.00 | 0.00 | 0.00 | 78 | 1013.5 |
| 20260510022916 | 13 | 223 | 0.0 | 3.2 | 0.00 | 0.00 | 0.00 | 77 | 1013.6 |
| 20260510022415 | 13 | 260 | 0.0 | 0.0 | 0.00 | 0.00 | 0.00 | 78 | 1013.7 |
| 20260510021914 | 13 | 261 | 1.6 | 3.2 | 0.00 | 0.00 | 0.00 | 77 | 1013.6 |
| 20260510021412 | 13 | 220 | 3.2 | 4.8 | 0.00 | 0.00 | 0.00 | 76 | 1013.6 |
| 20260510020909 | 13 | 216 | 1.6 | 6.4 | 0.00 | 0.00 | 0.00 | 76 | 1013.4 |
| 20260510020403 | 13 | 217 | 1.6 | 4.8 | 0.00 | 0.00 | 0.00 | 76 | 1013.5 |
| 20260510015859 | 13 | 238 | 4.8 | 6.4 | 0.00 | 0.00 | 0.00 | 76 | 1013.3 |
| 20260510015355 | 13 | 234 | 1.6 | 3.2 | 0.00 | 0.00 | 0.00 | 77 | 1013.4 |
| 20260510014851 | 13 | 220 | 0.0 | 3.2 | 0.00 | 0.00 | 0.00 | 78 | 1013.2 |
| 20260510014349 | 13 | 231 | 0.0 | 0.0 | 0.00 | 0.00 | 0.00 | 78 | 1013.2 |
| 20260510013844 | 12 | 239 | 0.0 | 0.0 | 0.00 | 0.00 | 0.00 | 80 | 1013.1 |
| 20260510013340 | 13 | 216 | 0.0 | 0.0 | 0.00 | 0.00 | 0.00 | 78 | 1013.0 |
| 20260510012835 | 13 | 216 | 0.0 | 0.0 | 0.00 | 0.00 | 0.00 | 78 | 1013.0 |
| 20260510012330 | 13 | 217 | 0.0 | 0.0 | 0.00 | 0.00 | 0.00 | 77 | 1012.8 |
| 20260510011825 | 13 | 216 | 0.0 | 0.0 | 0.00 | 0.00 | 0.00 | 77 | 1012.7 |
| 20260510011321 | 12 | 239 | 0.0 | 0.0 | 0.00 | 0.00 | 0.00 | 78 | 1012.7 |
| 20260510010817 | 13 | 243 | 0.0 | 0.0 | 0.00 | 0.00 | 0.00 | 77 | 1012.9 |
| 20260510010315 | 13 | 243 | 0.0 | 0.0 | 0.00 | 0.00 | 0.00 | 78 | 1012.7 |
| 20260510005811 | 13 | 243 | 0.0 | 0.0 | 0.00 | 0.00 | 0.00 | 75 | 1012.4 |
| 20260510005307 | 14 | 243 | 0.0 | 0.0 | 0.00 | 0.00 | 0.00 | 73 | 1012.6 |
| 20260510004805 | 14 | 243 | 0.0 | 1.6 | 0.00 | 0.00 | 0.00 | 72 | 1012.4 |
| 20260510004303 | 15 | 234 | 0.0 | 0.0 | 0.00 | 0.00 | 0.00 | 71 | 1012.3 |
| 20260510003800 | 15 | 235 | 0.0 | 0.0 | 0.00 | 0.00 | 0.00 | 69 | 1012.2 |
| 20260510003256 | 15 | 235 | 0.0 | 0.0 | 0.00 | 0.00 | 0.00 | 68 | 1012.1 |
| 20260510002755 | 15 | 256 | 0.0 | 1.6 | 0.00 | 0.00 | 0.00 | 68 | 1012.0 |
| 20260510002253 | 16 | 195 | 1.6 | 3.2 | 0.00 | 0.00 | 0.00 | 67 | 1011.9 |
| 20260510001749 | 16 | 215 | 0.0 | 0.0 | 0.00 | 0.00 | 0.00 | 66 | 1011.8 |
| 20260510001248 | 16 | 242 | 0.0 | 3.2 | 0.00 | 0.00 | 0.00 | 65 | 1012.0 |
| 20260510000743 | 16 | 234 | 1.6 | 1.6 | 0.00 | 0.00 | 0.00 | 63 | 1011.9 |
| 20260510000241 | 17 | 255 | 3.2 | 4.8 | 0.00 | 0.00 | 0.00 | 61 | 1011.7 |
| 20260509235738 | 17 | 276 | 4.8 | 9.7 | 0.00 | 0.00 | 0.00 | 61 | 1011.8 |
| 20260509235234 | 17 | 211 | 3.2 | 6.4 | 0.00 | 0.00 | 0.00 | 60 | 1011.8 |
| 20260509234730 | 17 | 263 | 1.6 | 9.7 | 0.00 | 0.00 | 0.00 | 60 | 1011.7 |
| 20260509234227 | 17 | 297 | 12.9 | 20.9 | 0.00 | 0.00 | 0.00 | 59 | 1011.6 |
| 20260509233725 | 17 | 282 | 8.0 | 12.9 | 0.00 | 0.00 | 0.00 | 59 | 1011.6 |
| 20260509233223 | 17 | 293 | 4.8 | 4.8 | 0.00 | 0.00 | 0.00 | 62 | 1011.7 |
| 20260509232718 | 18 | 263 | 3.2 | 6.4 | 0.00 | 0.00 | 0.00 | 62 | 1011.6 |
| 20260509232216 | 18 | 252 | 3.2 | 9.7 | 0.00 | 0.00 | 0.00 | 59 | 1011.6 |
| 20260509231712 | 17 | 281 | 4.8 | 6.4 | 0.00 | 0.00 | 0.00 | 61 | 1011.5 |
| 20260509231210 | 17 | 212 | 4.8 | 9.7 | 0.00 | 0.00 | 0.00 | 62 | 1011.7 |
| 20260509230707 | 17 | 244 | 1.6 | 4.8 | 0.00 | 0.00 | 0.00 | 63 | 1011.7 |
| 20260509230203 | 17 | 219 | 6.4 | 11.3 | 0.00 | 0.00 | 0.00 | 60 | 1011.9 |
| 20260509225659 | 18 | 322 | 6.4 | 14.5 | 0.00 | 0.00 | 0.00 | 57 | 1011.8 |
| 20260509225155 | 18 | 248 | 3.2 | 4.8 | 0.00 | 0.00 | 0.00 | 59 | 1012.0 |
| 20260509224650 | 18 | 281 | 3.2 | 9.7 | 0.00 | 0.00 | 0.00 | 59 | 1011.9 |
| 20260509224147 | 18 | 195 | 8.0 | 14.5 | 0.00 | 0.00 | 0.00 | 60 | 1011.7 |
| 20260509223644 | 18 | 233 | 6.4 | 17.7 | 0.00 | 0.00 | 0.00 | 58 | 1011.9 |
| 20260509223141 | 18 | 302 | 6.4 | 6.4 | 0.00 | 0.00 | 0.00 | 56 | 1012.0 |
| 20260509222638 | 18 | 257 | 6.4 | 11.3 | 0.00 | 0.00 | 0.00 | 58 | 1011.8 |
| 20260509222133 | 19 | 202 | 6.4 | 17.7 | 0.00 | 0.00 | 0.00 | 59 | 1011.8 |
| 20260509221630 | 18 | 277 | 4.8 | 9.7 | 0.00 | 0.00 | 0.00 | 58 | 1011.7 |
| 20260509221126 | 18 | 286 | 9.7 | 12.9 | 0.00 | 0.00 | 0.00 | 58 | 1012.0 |
| 20260509220622 | 18 | 269 | 9.7 | 14.5 | 0.00 | 0.00 | 0.00 | 56 | 1012.1 |
| 20260509220118 | 18 | 215 | 4.8 | 11.3 | 0.00 | 0.00 | 0.00 | 60 | 1012.0 |
| 20260509215614 | 19 | 263 | 8.0 | 14.5 | 0.00 | 0.00 | 0.00 | 56 | 1011.8 |
| 20260509215111 | 19 | 284 | 8.0 | 14.5 | 0.00 | 0.00 | 0.00 | 56 | 1012.1 |
| 20260509214608 | 18 | 289 | 3.2 | 6.4 | 0.00 | 0.00 | 0.00 | 59 | 1012.2 |
| 20260509214105 | 18 | 261 | 8.0 | 11.3 | 0.00 | 0.00 | 0.00 | 57 | 1012.1 |
| 20260509213600 | 18 | 242 | 3.2 | 9.7 | 0.00 | 0.00 | 0.00 | 60 | 1012.1 |
| 20260509213057 | 18 | 355 | 8.0 | 12.9 | 0.00 | 0.00 | 0.00 | 59 | 1012.1 |
| 20260509212555 | 17 | 232 | 3.2 | 4.8 | 0.00 | 0.00 | 0.00 | 60 | 1012.2 |
| 20260509212052 | 17 | 315 | 6.4 | 12.9 | 0.00 | 0.00 | 0.00 | 62 | 1011.9 |
| 20260509211547 | 18 | 237 | 8.0 | 12.9 | 0.00 | 0.00 | 0.00 | 58 | 1012.0 |
| 20260509211044 | 18 | 309 | 9.7 | 16.1 | 0.00 | 0.00 | 0.00 | 56 | 1012.1 |
| 20260509210541 | 18 | 253 | 6.4 | 12.9 | 0.00 | 0.00 | 0.00 | 59 | 1012.0 |
| 20260509210037 | 17 | 292 | 9.7 | 14.5 | 0.00 | 0.00 | 0.00 | 59 | 1012.0 |
| 20260509205532 | 18 | 306 | 3.2 | 6.4 | 0.00 | 0.00 | 0.00 | 60 | 1012.1 |
| 20260509205028 | 17 | 280 | 6.4 | 12.9 | 0.00 | 0.00 | 0.00 | 60 | 1011.9 |
| 20260509204524 | 17 | 230 | 8.0 | 11.3 | 0.00 | 0.00 | 0.00 | 60 | 1011.9 |
| 20260509204021 | 17 | 320 | 8.0 | 12.9 | 0.00 | 0.00 | 0.00 | 60 | 1011.9 |
| 20260509203517 | 18 | 251 | 14.5 | 22.5 | 0.00 | 0.00 | 0.00 | 57 | 1011.9 |
| 20260509203015 | 18 | 307 | 11.3 | 17.7 | 0.00 | 0.00 | 0.00 | 62 | 1011.9 |
| 20260509202514 | 18 | 353 | 9.7 | 14.5 | 0.00 | 0.00 | 0.00 | 58 | 1011.9 |
| 20260509202010 | 18 | 305 | 9.7 | 16.1 | 0.00 | 0.00 | 0.00 | 54 | 1011.8 |
| 20260509201505 | 18 | 301 | 11.3 | 14.5 | 0.00 | 0.00 | 0.00 | 57 | 1011.9 |
| 20260509201003 | 17 | 267 | 8.0 | 11.3 | 0.00 | 0.00 | 0.00 | 57 | 1012.1 |
| 20260509200458 | 17 | 281 | 8.0 | 12.9 | 0.00 | 0.00 | 0.00 | 57 | 1012.2 |
| 20260509195954 | 17 | 276 | 9.7 | 16.1 | 0.00 | 0.00 | 0.00 | 58 | 1012.2 |
| 20260509195450 | 17 | 319 | 16.1 | 24.1 | 0.00 | 0.00 | 0.00 | 57 | 1012.1 |
| 20260509194949 | 17 | 218 | 9.7 | 14.5 | 0.00 | 0.00 | 0.00 | 60 | 1012.3 |
| 20260509194445 | 17 | 267 | 4.8 | 11.3 | 0.00 | 0.00 | 0.00 | 58 | 1012.1 |
| 20260509193942 | 17 | 286 | 3.2 | 12.9 | 0.00 | 0.00 | 0.00 | 59 | 1012.2 |
| 20260509193442 | 17 | 331 | 9.7 | 17.7 | 0.00 | 0.00 | 0.00 | 60 | 1012.4 |
| 20260509192938 | 18 | 298 | 11.3 | 17.7 | 0.00 | 0.00 | 0.00 | 57 | 1012.2 |
| 20260509192435 | 17 | 324 | 8.0 | 17.7 | 0.00 | 0.00 | 0.00 | 57 | 1012.3 |
| 20260509191930 | 17 | 294 | 9.7 | 24.1 | 0.00 | 0.00 | 0.00 | 59 | 1012.1 |
| 20260509191426 | 17 | 246 | 8.0 | 17.7 | 0.00 | 0.00 | 0.00 | 59 | 1012.0 |
| 20260509190922 | 17 | 329 | 6.4 | 9.7 | 0.00 | 0.00 | 0.00 | 58 | 1012.1 |
| 20260509190419 | 18 | 343 | 9.7 | 12.9 | 0.00 | 0.00 | 0.00 | 57 | 1012.2 |
| 20260509185917 | 17 | 271 | 8.0 | 9.7 | 0.00 | 0.00 | 0.00 | 58 | 1012.2 |
| 20260509185414 | 17 | 319 | 9.7 | 12.9 | 0.00 | 0.00 | 0.00 | 58 | 1012.1 |
| 20260509184911 | 17 | 325 | 12.9 | 16.1 | 0.00 | 0.00 | 0.00 | 59 | 1012.2 |
| 20260509184408 | 17 | 327 | 14.5 | 17.7 | 0.00 | 0.00 | 0.00 | 59 | 1012.2 |
| 20260509183905 | 17 | 296 | 4.8 | 12.9 | 0.00 | 0.00 | 0.00 | 59 | 1012.1 |
| 20260509183359 | 17 | 241 | 8.0 | 17.7 | 0.00 | 0.00 | 0.00 | 59 | 1011.9 |
| 20260509182855 | 17 | 294 | 8.0 | 16.1 | 0.00 | 0.00 | 0.00 | 57 | 1011.9 |
| 20260509182352 | 17 | 304 | 9.7 | 17.7 | 0.00 | 0.00 | 0.00 | 56 | 1011.9 |
| 20260509181850 | 17 | 279 | 14.5 | 22.5 | 0.00 | 0.00 | 0.00 | 57 | 1011.8 |
| 20260509181347 | 17 | 151 | 8.0 | 14.5 | 0.00 | 0.00 | 0.00 | 58 | 1011.8 |
| 20260509180845 | 17 | 293 | 11.3 | 14.5 | 0.00 | 0.00 | 0.00 | 56 | 1011.9 |
| 20260509180340 | 17 | 289 | 0.0 | 12.9 | 0.00 | 0.00 | 0.00 | 58 | 1011.9 |
| 20260509175837 | 17 | 261 | 19.3 | 24.1 | 0.00 | 0.00 | 0.00 | 54 | 1011.8 |
| 20260509175333 | 17 | 274 | 3.2 | 6.4 | 0.00 | 0.00 | 0.00 | 55 | 1012.1 |
| 20260509174829 | 17 | 311 | 8.0 | 12.9 | 0.00 | 0.00 | 0.00 | 54 | 1012.0 |
| 20260509174325 | 17 | 305 | 6.4 | 11.3 | 0.00 | 0.00 | 0.00 | 56 | 1012.0 |
| 20260509173821 | 17 | 321 | 6.4 | 9.7 | 0.00 | 0.00 | 0.00 | 59 | 1012.0 |
| 20260509173317 | 16 | 263 | 8.0 | 14.5 | 0.00 | 0.00 | 0.00 | 54 | 1012.2 |
| 20260509172813 | 17 | 242 | 1.6 | 9.7 | 0.00 | 0.00 | 0.00 | 56 | 1012.2 |
| 20260509172310 | 16 | 249 | 4.8 | 9.7 | 0.00 | 0.00 | 0.00 | 56 | 1012.0 |
| 20260509171806 | 16 | 192 | 8.0 | 9.7 | 0.00 | 0.00 | 0.00 | 56 | 1012.1 |
| 20260509171302 | 17 | 297 | 4.8 | 12.9 | 0.00 | 0.00 | 0.00 | 56 | 1012.0 |
| 20260509170759 | 17 | 274 | 3.2 | 6.4 | 0.00 | 0.00 | 0.00 | 61 | 1012.2 |
| 20260509170254 | 17 | 280 | 4.8 | 9.7 | 0.00 | 0.00 | 0.00 | 59 | 1012.2 |
| 20260509165754 | 16 | 256 | 0.0 | 6.4 | 0.00 | 0.00 | 0.00 | 59 | 1012.2 |
| 20260509165249 | 16 | 239 | 0.0 | 4.8 | 0.00 | 0.00 | 0.00 | 62 | 1012.4 |
| 20260509164745 | 16 | 221 | 3.2 | 6.4 | 0.00 | 0.00 | 0.00 | 61 | 1012.4 |
| 20260509164241 | 15 | 218 | 3.2 | 6.4 | 0.00 | 0.00 | 0.00 | 59 | 1012.3 |
| 20260509163738 | 15 | 196 | 1.6 | 6.4 | 0.00 | 0.00 | 0.00 | 63 | 1012.2 |
| 20260509163234 | 15 | 206 | 4.8 | 9.7 | 0.00 | 0.00 | 0.00 | 59 | 1012.4 |
| 20260509162733 | 15 | 248 | 4.8 | 4.8 | 0.00 | 0.00 | 0.00 | 59 | 1012.3 |
| 20260509162227 | 15 | 206 | 4.8 | 4.8 | 0.00 | 0.00 | 0.00 | 62 | 1012.3 |
| 20260509161723 | 15 | 213 | 3.2 | 4.8 | 0.00 | 0.00 | 0.00 | 65 | 1012.4 |
| 20260509161220 | 15 | 245 | 1.6 | 6.4 | 0.00 | 0.00 | 0.00 | 64 | 1012.6 |
| 20260509160721 | 15 | 236 | 1.6 | 6.4 | 0.00 | 0.00 | 0.00 | 65 | 1012.7 |
| 20260509160217 | 15 | 240 | 3.2 | 6.4 | 0.00 | 0.00 | 0.00 | 63 | 1012.8 |
| 20260509155712 | 15 | 229 | 0.0 | 4.8 | 0.00 | 0.00 | 0.00 | 64 | 1012.6 |
| 20260509155209 | 15 | 215 | 1.6 | 6.4 | 0.00 | 0.00 | 0.00 | 63 | 1012.6 |
| 20260509154705 | 15 | 206 | 3.2 | 6.4 | 0.00 | 0.00 | 0.00 | 66 | 1012.8 |
| 20260509154202 | 15 | 250 | 4.8 | 6.4 | 0.00 | 0.00 | 0.00 | 66 | 1013.0 |
| 20260509153659 | 15 | 260 | 1.6 | 4.8 | 0.00 | 0.00 | 0.00 | 69 | 1012.7 |
| 20260509153156 | 15 | 267 | 6.4 | 6.4 | 0.00 | 0.00 | 0.00 | 70 | 1012.9 |
| 20260509152652 | 15 | 156 | 3.2 | 4.8 | 0.00 | 0.00 | 0.00 | 67 | 1012.9 |
| 20260509152149 | 15 | 231 | 1.6 | 3.2 | 0.00 | 0.00 | 0.00 | 70 | 1012.8 |
| 20260509151645 | 15 | 167 | 1.6 | 3.2 | 0.00 | 0.00 | 0.00 | 69 | 1012.9 |
| 20260509151143 | 14 | 195 | 0.0 | 1.6 | 0.00 | 0.00 | 0.00 | 72 | 1013.0 |
| 20260509150641 | 14 | 69 | 0.0 | 3.2 | 0.00 | 0.00 | 0.00 | 72 | 1013.2 |
| 20260509150139 | 14 | 141 | 1.6 | 3.2 | 0.00 | 0.00 | 0.00 | 73 | 1013.3 |
| 20260509145635 | 13 | 157 | 0.0 | 3.2 | 0.00 | 0.00 | 0.00 | 74 | 1013.1 |
| 20260509145130 | 13 | 172 | 1.6 | 6.4 | 0.00 | 0.00 | 0.00 | 71 | 1013.2 |
| 20260509144627 | 13 | 162 | 1.6 | 6.4 | 0.00 | 0.00 | 0.00 | 75 | 1013.1 |
| 20260509144124 | 13 | 135 | 1.6 | 4.8 | 0.00 | 0.00 | 0.00 | 73 | 1013.2 |
| 20260509143621 | 13 | 135 | 3.2 | 4.8 | 0.00 | 0.00 | 0.00 | 74 | 1013.1 |
| 20260509143119 | 13 | 195 | 3.2 | 3.2 | 0.00 | 0.00 | 0.00 | 73 | 1013.0 |
| 20260509142613 | 13 | 185 | 3.2 | 4.8 | 0.00 | 0.00 | 0.00 | 74 | 1012.9 |
| 20260509142110 | 13 | 126 | 0.0 | 3.2 | 0.00 | 0.00 | 0.00 | 75 | 1013.2 |
| 20260509141606 | 13 | 119 | 1.6 | 3.2 | 0.00 | 0.00 | 0.00 | 75 | 1013.0 |
| 20260509141103 | 12 | 106 | 3.2 | 4.8 | 0.00 | 0.00 | 0.00 | 75 | 1013.1 |
| 20260509140600 | 12 | 119 | 3.2 | 4.8 | 0.00 | 0.00 | 0.00 | 75 | 1013.3 |
| 20260509140058 | 13 | 67 | 0.0 | 1.6 | 0.00 | 0.00 | 0.00 | 76 | 1013.2 |
| 20260509135555 | 12 | 72 | 0.0 | 1.6 | 0.00 | 0.00 | 0.00 | 78 | 1013.2 |
| 20260509135052 | 12 | 70 | 0.0 | 0.0 | 0.00 | 0.00 | 0.00 | 79 | 1013.2 |
| 20260509134549 | 12 | 60 | 0.0 | 0.0 | 0.00 | 0.00 | 0.00 | 78 | 1013.3 |
| 20260509134047 | 12 | 61 | 0.0 | 0.0 | 0.00 | 0.00 | 0.00 | 76 | 1013.3 |
| 20260509133543 | 12 | 61 | 0.0 | 0.0 | 0.00 | 0.00 | 0.00 | 77 | 1013.4 |
| 20260509133041 | 12 | 58 | 0.0 | 0.0 | 0.00 | 0.00 | 0.00 | 78 | 1013.5 |
| 20260509132539 | 12 | 37 | 0.0 | 0.0 | 0.00 | 0.00 | 0.00 | 77 | 1013.5 |
| 20260509132037 | 12 | 63 | 0.0 | 0.0 | 0.00 | 0.00 | 0.00 | 76 | 1013.3 |
| 20260509131533 | 12 | 58 | 0.0 | 1.6 | 0.00 | 0.00 | 0.00 | 79 | 1013.3 |
| 20260509131030 | 12 | 58 | 1.6 | 3.2 | 0.00 | 0.00 | 0.00 | 80 | 1013.2 |
| 20260509130525 | 12 | 50 | 0.0 | 0.0 | 0.00 | 0.00 | 0.00 | 77 | 1013.3 |
| 20260509130023 | 12 | 36 | 0.0 | 0.0 | 0.00 | 0.00 | 0.00 | 80 | 1013.3 |
| 20260509125519 | 11 | 351 | 0.0 | 0.0 | 0.00 | 0.00 | 0.00 | 81 | 1013.3 |
| 20260509125016 | 11 | 351 | 0.0 | 0.0 | 0.00 | 0.00 | 0.00 | 82 | 1013.2 |
| 20260509124512 | 11 | 38 | 0.0 | 0.0 | 0.00 | 0.00 | 0.00 | 82 | 1013.2 |
| 20260509124010 | 11 | 78 | 0.0 | 0.0 | 0.00 | 0.00 | 0.00 | 85 | 1013.3 |
| 20260509123508 | 11 | 79 | 0.0 | 0.0 | 0.00 | 0.00 | 0.00 | 85 | 1013.5 |
| 20260509123003 | 11 | 90 | 0.0 | 0.0 | 0.00 | 0.00 | 0.00 | 84 | 1013.5 |
| 20260509122500 | 11 | 90 | 0.0 | 0.0 | 0.00 | 0.00 | 0.00 | 84 | 1013.4 |
| 20260509121957 | 11 | 96 | 0.0 | 0.0 | 0.00 | 0.00 | 0.00 | 83 | 1013.3 |
| 20260509121453 | 11 | 97 | 0.0 | 0.0 | 0.00 | 0.00 | 0.00 | 84 | 1013.3 |
| 20260509120952 | 11 | 97 | 0.0 | 0.0 | 0.00 | 0.00 | 0.00 | 84 | 1013.5 |
| 20260509120449 | 11 | 97 | 0.0 | 0.0 | 0.00 | 0.00 | 0.00 | 84 | 1013.5 |
| 20260509115947 | 11 | 96 | 0.0 | 0.0 | 0.00 | 0.00 | 0.00 | 83 | 1013.3 |
| 20260509115444 | 11 | 88 | 0.0 | 0.0 | 0.00 | 0.00 | 0.00 | 83 | 1013.5 |
| 20260509114941 | 11 | 91 | 0.0 | 0.0 | 0.00 | 0.00 | 0.00 | 81 | 1013.5 |
| 20260509114440 | 11 | 104 | 0.0 | 1.6 | 0.00 | 0.00 | 0.00 | 82 | 1013.5 |
| 20260509113939 | 11 | 84 | 0.0 | 3.2 | 0.00 | 0.00 | 0.00 | 81 | 1013.5 |
| 20260509113436 | 11 | 64 | 0.0 | 0.0 | 0.00 | 0.00 | 0.00 | 80 | 1013.4 |
| 20260509112933 | 11 | 67 | 1.6 | 1.6 | 0.00 | 0.00 | 0.00 | 80 | 1013.6 |
| 20260509112430 | 11 | 115 | 3.2 | 6.4 | 0.00 | 0.00 | 0.00 | 80 | 1013.4 |
| 20260509111927 | 11 | 109 | 4.8 | 4.8 | 0.00 | 0.00 | 0.00 | 80 | 1013.4 |
| 20260509111424 | 11 | 79 | 0.0 | 0.0 | 0.00 | 0.00 | 0.00 | 81 | 1013.4 |
| 20260509110921 | 11 | 79 | 0.0 | 1.6 | 0.00 | 0.00 | 0.00 | 81 | 1013.2 |
| 20260509110417 | 11 | 78 | 1.6 | 3.2 | 0.00 | 0.00 | 0.00 | 79 | 1013.4 |
| 20260509105916 | 11 | 74 | 0.0 | 0.0 | 0.00 | 0.00 | 0.00 | 79 | 1013.4 |
| 20260509105414 | 11 | 74 | 0.0 | 0.0 | 0.00 | 0.00 | 0.00 | 79 | 1013.3 |
| 20260509104910 | 10 | 74 | 0.0 | 0.0 | 0.00 | 0.00 | 0.00 | 79 | 1013.4 |
| 20260509104407 | 10 | 74 | 0.0 | 0.0 | 0.00 | 0.00 | 0.00 | 80 | 1013.4 |
| 20260509103904 | 11 | 74 | 0.0 | 0.0 | 0.00 | 0.00 | 0.00 | 80 | 1013.2 |
| 20260509103401 | 11 | 67 | 0.0 | 1.6 | 0.00 | 0.00 | 0.00 | 79 | 1013.3 |
| 20260509102900 | 11 | 57 | 0.0 | 0.0 | 0.00 | 0.00 | 0.00 | 78 | 1013.2 |
| 20260509102357 | 11 | 57 | 0.0 | 0.0 | 0.00 | 0.00 | 0.00 | 78 | 1013.2 |
| 20260509101853 | 11 | 51 | 1.6 | 3.2 | 0.00 | 0.00 | 0.00 | 76 | 1013.2 |
| 20260509101349 | 11 | 30 | 0.0 | 0.0 | 0.00 | 0.00 | 0.00 | 77 | 1013.4 |
| 20260509100847 | 11 | 30 | 0.0 | 0.0 | 0.00 | 0.00 | 0.00 | 76 | 1013.4 |
| 20260509100344 | 11 | 30 | 0.0 | 0.0 | 0.00 | 0.00 | 0.00 | 76 | 1013.5 |
| 20260509095841 | 11 | 30 | 0.0 | 0.0 | 0.00 | 0.00 | 0.00 | 75 | 1013.4 |
| 20260509095338 | 11 | 30 | 0.0 | 0.0 | 0.00 | 0.00 | 0.00 | 75 | 1013.2 |
| 20260509094835 | 11 | 30 | 0.0 | 0.0 | 0.00 | 0.00 | 0.00 | 74 | 1013.2 |
| 20260509094331 | 11 | 30 | 0.0 | 1.6 | 0.00 | 0.00 | 0.00 | 74 | 1013.3 |
| 20260509093829 | 11 | 30 | 0.0 | 0.0 | 0.00 | 0.00 | 0.00 | 73 | 1013.4 |
| 20260509093326 | 11 | 340 | 1.6 | 1.6 | 0.00 | 0.00 | 0.00 | 73 | 1013.5 |
| 20260509092825 | 11 | 1 | 0.0 | 0.0 | 0.00 | 0.00 | 0.00 | 72 | 1013.4 |
| 20260509092322 | 11 | 1 | 0.0 | 0.0 | 0.00 | 0.00 | 0.00 | 71 | 1013.4 |
| 20260509091820 | 11 | 338 | 0.0 | 0.0 | 0.00 | 0.00 | 0.00 | 71 | 1013.5 |
| 20260509091317 | 11 | 305 | 0.0 | 0.0 | 0.00 | 0.00 | 0.00 | 71 | 1013.5 |
| 20260509090814 | 11 | 347 | 3.2 | 3.2 | 0.00 | 0.00 | 0.00 | 70 | 1013.4 |
| 20260509090311 | 11 | 318 | 4.8 | 6.4 | 0.00 | 0.00 | 0.00 | 68 | 1013.4 |
| 20260509085808 | 11 | 18 | 3.2 | 4.8 | 0.00 | 0.00 | 0.00 | 69 | 1013.3 |
| 20260509085306 | 11 | 321 | 3.2 | 3.2 | 0.00 | 0.00 | 0.00 | 70 | 1013.5 |
| 20260509084802 | 12 | 359 | 3.2 | 14.5 | 0.00 | 0.00 | 0.00 | 68 | 1013.3 |
| 20260509084259 | 11 | 245 | 0.0 | 1.6 | 0.00 | 0.00 | 0.00 | 64 | 1013.0 |
| 20260509083757 | 11 | 34 | 0.0 | 0.0 | 0.00 | 0.00 | 0.00 | 71 | 1013.0 |
| 20260509083253 | 11 | 34 | 0.0 | 0.0 | 0.00 | 0.00 | 0.00 | 69 | 1013.1 |
| 20260509082750 | 11 | 32 | 0.0 | 0.0 | 0.00 | 0.00 | 0.00 | 71 | 1013.3 |
| 20260509082247 | 11 | 32 | 0.0 | 0.0 | 0.00 | 0.00 | 0.00 | 69 | 1013.3 |
| 20260509081744 | 11 | 350 | 1.6 | 1.6 | 0.00 | 0.00 | 0.00 | 69 | 1013.5 |
| 20260509081241 | 11 | 333 | 0.0 | 4.8 | 0.00 | 0.00 | 0.00 | 76 | 1013.4 |
| 20260509080739 | 11 | 229 | 1.6 | 1.6 | 0.00 | 0.00 | 0.00 | 74 | 1013.3 |
| 20260509080236 | 12 | 247 | 1.6 | 1.6 | 0.00 | 0.00 | 0.00 | 71 | 1013.3 |
| 20260509075734 | 12 | 248 | 0.0 | 1.6 | 0.00 | 0.00 | 0.00 | 66 | 1013.1 |
| 20260509075232 | 12 | 248 | 0.0 | 0.0 | 0.00 | 0.00 | 0.00 | 67 | 1013.4 |
| 20260509074729 | 12 | 248 | 0.0 | 0.0 | 0.00 | 0.00 | 0.00 | 62 | 1013.0 |
| 20260509074226 | 12 | 237 | 0.0 | 0.0 | 0.00 | 0.00 | 0.00 | 62 | 1012.8 |
| 20260509073722 | 12 | 215 | 1.6 | 3.2 | 0.00 | 0.00 | 0.00 | 61 | 1012.8 |
| 20260509073219 | 12 | 224 | 0.0 | 3.2 | 0.00 | 0.00 | 0.00 | 62 | 1013.0 |
| 20260509072715 | 12 | 247 | 0.0 | 0.0 | 0.00 | 0.00 | 0.00 | 63 | 1013.0 |
| 20260509072212 | 12 | 247 | 0.0 | 0.0 | 0.00 | 0.00 | 0.00 | 64 | 1012.8 |
| 20260509071709 | 12 | 247 | 0.0 | 0.0 | 0.00 | 0.00 | 0.00 | 61 | 1012.9 |
| 20260509071206 | 12 | 247 | 0.0 | 0.0 | 0.00 | 0.00 | 0.00 | 61 | 1012.8 |
| 20260509070703 | 12 | 248 | 0.0 | 0.0 | 0.00 | 0.00 | 0.00 | 60 | 1012.9 |
| 20260509070159 | 12 | 214 | 0.0 | 1.6 | 0.00 | 0.00 | 0.00 | 62 | 1013.1 |
| 20260509065655 | 12 | 214 | 0.0 | 4.8 | 0.00 | 0.00 | 0.00 | 62 | 1012.9 |
| 20260509065152 | 12 | 223 | 3.2 | 4.8 | 0.00 | 0.00 | 0.00 | 62 | 1012.9 |
| 20260509064649 | 12 | 224 | 0.0 | 1.6 | 0.00 | 0.00 | 0.00 | 62 | 1013.0 |
| 20260509064147 | 12 | 222 | 1.6 | 3.2 | 0.00 | 0.00 | 0.00 | 60 | 1012.9 |
| 20260509063643 | 12 | 212 | 3.2 | 4.8 | 0.00 | 0.00 | 0.00 | 62 | 1013.1 |
| 20260509063140 | 12 | 225 | 4.8 | 9.7 | 0.00 | 0.00 | 0.00 | 61 | 1013.0 |
| 20260509062637 | 12 | 207 | 0.0 | 3.2 | 0.00 | 0.00 | 0.00 | 63 | 1012.8 |
| 20260509062134 | 12 | 214 | 6.4 | 6.4 | 0.00 | 0.00 | 0.00 | 61 | 1013.0 |
| 20260509061631 | 12 | 222 | 4.8 | 6.4 | 0.00 | 0.00 | 0.00 | 62 | 1013.0 |
| 20260509061128 | 12 | 248 | 3.2 | 3.2 | 0.00 | 0.00 | 0.00 | 63 | 1012.8 |
| 20260509060626 | 12 | 231 | 6.4 | 6.4 | 0.00 | 0.00 | 0.00 | 63 | 1012.9 |
| 20260509060121 | 12 | 265 | 1.6 | 3.2 | 0.00 | 0.00 | 0.00 | 67 | 1013.0 |
| 20260509055617 | 12 | 219 | 3.2 | 4.8 | 0.00 | 0.00 | 0.00 | 64 | 1012.9 |
| 20260509055113 | 12 | 228 | 1.6 | 4.8 | 0.00 | 0.00 | 0.00 | 64 | 1013.0 |
| 20260509054610 | 12 | 240 | 1.6 | 4.8 | 0.00 | 0.00 | 0.00 | 66 | 1013.3 |
| 20260509054108 | 12 | 234 | 3.2 | 3.2 | 0.00 | 0.00 | 0.00 | 65 | 1013.2 |
| 20260509053606 | 12 | 268 | 1.6 | 1.6 | 0.00 | 0.00 | 0.00 | 66 | 1013.4 |
| 20260509053103 | 12 | 251 | 0.0 | 4.8 | 0.00 | 0.00 | 0.00 | 65 | 1013.5 |
| 20260509052601 | 12 | 288 | 0.0 | 3.2 | 0.00 | 0.00 | 0.00 | 64 | 1013.4 |
| 20260509052058 | 11 | 257 | 0.0 | 1.6 | 0.00 | 0.00 | 0.00 | 67 | 1013.3 |
| 20260509051556 | 11 | 253 | 0.0 | 0.0 | 0.00 | 0.00 | 0.00 | 69 | 1013.6 |
| 20260509051053 | 11 | 272 | 0.0 | 0.0 | 0.00 | 0.00 | 0.00 | 68 | 1013.5 |
| 20260509050550 | 12 | 272 | 0.0 | 0.0 | 0.00 | 0.00 | 0.00 | 66 | 1013.6 |
| 20260509050046 | 12 | 272 | 0.0 | 1.6 | 0.00 | 0.00 | 0.00 | 65 | 1013.5 |
| 20260509045544 | 12 | 236 | 1.6 | 3.2 | 0.00 | 0.00 | 0.00 | 64 | 1013.7 |
| 20260509045040 | 12 | 258 | 0.0 | 0.0 | 0.00 | 0.00 | 0.00 | 66 | 1013.6 |
| 20260509044538 | 12 | 232 | 0.0 | 1.6 | 0.00 | 0.00 | 0.00 | 66 | 1013.7 |
| 20260509044035 | 12 | 232 | 1.6 | 1.6 | 0.00 | 0.00 | 0.00 | 67 | 1013.9 |
| 20260509043532 | 12 | 271 | 0.0 | 0.0 | 0.00 | 0.00 | 0.00 | 67 | 1013.8 |
| 20260509043027 | 12 | 271 | 0.0 | 1.6 | 0.00 | 0.00 | 0.00 | 68 | 1013.8 |
| 20260509042523 | 12 | 236 | 0.0 | 1.6 | 0.00 | 0.00 | 0.00 | 63 | 1013.7 |
| 20260509042020 | 12 | 236 | 0.0 | 0.0 | 0.00 | 0.00 | 0.00 | 63 | 1013.8 |
| 20260509041517 | 12 | 277 | 3.2 | 3.2 | 0.00 | 0.00 | 0.00 | 64 | 1013.9 |
| 20260509041014 | 12 | 250 | 1.6 | 3.2 | 0.00 | 0.00 | 0.00 | 63 | 1014.0 |
| 20260509040513 | 12 | 289 | 1.6 | 1.6 | 0.00 | 0.00 | 0.00 | 63 | 1013.8 |
| 20260509040009 | 12 | 289 | 1.6 | 4.8 | 0.00 | 0.00 | 0.00 | 62 | 1013.9 |
| 20260509035506 | 12 | 255 | 0.0 | 1.6 | 0.00 | 0.00 | 0.00 | 65 | 1013.8 |
| 20260509035002 | 12 | 225 | 0.0 | 0.0 | 0.00 | 0.00 | 0.00 | 66 | 1014.0 |
| 20260509034501 | 12 | 225 | 0.0 | 1.6 | 0.00 | 0.00 | 0.00 | 63 | 1013.9 |